When you browse on this site, cookies collect data to enhance your experience and personalize the content and advertising you see.
Visit our Privacy Policy to learn more. By continuing to use the site, you agree to this use of cookies and data.
  • Em Portugal
  • Lista de países
  • Para 7 dias
  • Temperatura da água
  • Mapas de satélite
  • Mapa do tempo
  • Widgets de tempo
  • user-avatar
    Iniciar Sessão

    Previsão horária em Santa Cruz de la Serra

    Hoje, 21 Janeiro, Segunda-feira

    Tempo Temperatura Precipitação Vento Pressão Humidade
    00:00 +25°C° 0 mm 2 m/s 724 mmHg 64%
    01:00 +24°C° 0 mm 1 m/s 723 mmHg 65%
    02:00 +24°C° 0 mm 1 m/s 723 mmHg 65%
    03:00 +24°C° 0 mm 1 m/s 723 mmHg 66%
    04:00 +24°C° 0 mm 1 m/s 723 mmHg 67%
    05:00 +23°C° 0 mm 2 m/s 723 mmHg 68%
    06:00 +25°C° 0 mm 2 m/s 723 mmHg 65%
    07:00 +26°C° 0 mm 3 m/s 723 mmHg 63%
    08:00 +27°C° 0 mm 3 m/s 724 mmHg 60%
    09:00 +29°C° 0 mm 4 m/s 724 mmHg 55%
    10:00 +32°C° 0 mm 4 m/s 724 mmHg 49%
    11:00 +34°C° 0 mm 5 m/s 724 mmHg 44%
    12:00 +35°C° 0 mm 5 m/s 723 mmHg 43%
    13:00 +36°C° 0 mm 5 m/s 722 mmHg 42%
    14:00 +36°C° 0 mm 5 m/s 722 mmHg 40%
    15:00 +36°C° 0 mm 5 m/s 721 mmHg 42%
    16:00 +36°C° 0 mm 4 m/s 721 mmHg 43%
    17:00 +36°C° 0 mm 4 m/s 720 mmHg 45%
    18:00 +34°C° 0 mm 3 m/s 721 mmHg 50%
    19:00 +31°C° 0 mm 2 m/s 721 mmHg 56%
    20:00 +29°C° 0 mm 2 m/s 722 mmHg 62%
    21:00 +29°C° 0 mm 2 m/s 723 mmHg 64%
    22:00 +28°C° 0 mm 2 m/s 723 mmHg 66%
    23:00 +28°C° 0 mm 1 m/s 724 mmHg 68%

    Amanhã, 22 Janeiro, Terça-feira

    Tempo Temperatura Precipitação Vento Pressão Humidade
    00:00 +27°C° 0 mm 1 m/s 723 mmHg 70%
    01:00 +27°C° 0 mm 1 m/s 723 mmHg 72%
    02:00 +26°C° 0 mm 1 m/s 723 mmHg 74%
    03:00 +26°C° 0 mm 1 m/s 723 mmHg 75%
    04:00 +25°C° 0 mm 1 m/s 723 mmHg 77%
    05:00 +25°C° 0 mm 2 m/s 723 mmHg 78%
    06:00 +26°C° 0 mm 2 m/s 723 mmHg 73%
    07:00 +28°C° 0 mm 2 m/s 724 mmHg 68%
    08:00 +29°C° 0 mm 3 m/s 724 mmHg 64%
    09:00 +32°C° 0 mm 4 m/s 724 mmHg 57%
    10:00 +34°C° 0 mm 4 m/s 724 mmHg 51%
    11:00 +36°C° 0 mm 5 m/s 724 mmHg 44%
    12:00 +36°C° 0 mm 5 m/s 724 mmHg 43%
    13:00 +37°C° 0 mm 5 m/s 723 mmHg 41%
    14:00 +39°C° 0 mm 5 m/s 722 mmHg 40%
    15:00 +37°C° 0 mm 5 m/s 721 mmHg 41%
    16:00 +37°C° 0 mm 4 m/s 721 mmHg 42%
    17:00 +37°C° 0 mm 4 m/s 720 mmHg 43%
    18:00 +35°C° 0 mm 3 m/s 721 mmHg 49%
    19:00 +33°C° 0 mm 3 m/s 721 mmHg 55%
    20:00 +30°C° 0 mm 2 m/s 721 mmHg 60%
    21:00 +30°C° 0 mm 2 m/s 722 mmHg 62%
    22:00 +29°C° 0 mm 2 m/s 723 mmHg 63%
    23:00 +29°C° 0 mm 2 m/s 723 mmHg 65%

    Depois de amanhã, 23 Janeiro, Quarta-feira

    Tempo Temperatura Precipitação Vento Pressão Humidade
    00:00 +29°C° 0 mm 3 m/s 723 mmHg 67%
    01:00 +28°C° 0 mm 3 m/s 723 mmHg 70%
    02:00 +28°C° 0 mm 3 m/s 722 mmHg 73%
    03:00 +28°C° 0 mm 3 m/s 722 mmHg 74%
    04:00 +27°C° 0 mm 3 m/s 722 mmHg 75%
    05:00 +27°C° 0 mm 3 m/s 722 mmHg 76%
    06:00 +28°C° 0 mm 3 m/s 723 mmHg 73%
    07:00 +28°C° 0 mm 4 m/s 723 mmHg 71%
    08:00 +29°C° 0 mm 4 m/s 724 mmHg 69%
    09:00 +30°C° 0 mm 4 m/s 724 mmHg 63%
    10:00 +33°C° 0 mm 4 m/s 724 mmHg 57%
    11:00 +34°C° 0 mm 5 m/s 724 mmHg 52%
    12:00 +35°C° 0 mm 5 m/s 723 mmHg 48%
    13:00 +36°C° 0 mm 5 m/s 722 mmHg 45%
    14:00 +37°C° 0 mm 5 m/s 721 mmHg 42%
    15:00 +37°C° 0 mm 4 m/s 721 mmHg 42%
    16:00 +37°C° 0 mm 4 m/s 720 mmHg 43%
    17:00 +37°C° 0 mm 4 m/s 720 mmHg 44%
    18:00 +35°C° 0 mm 3 m/s 720 mmHg 49%
    19:00 +34°C° 0 mm 3 m/s 721 mmHg 54%
    20:00 +31°C° 0 mm 2 m/s 721 mmHg 60%
    21:00 +30°C° 0 mm 2 m/s 722 mmHg 62%
    22:00 +30°C° 0 mm 2 m/s 722 mmHg 65%
    23:00 +29°C° 0 mm 2 m/s 723 mmHg 67%

    24 Janeiro, Quinta-feira

    Tempo Temperatura Precipitação Vento Pressão Humidade
    00:00 +29°C° 0 mm 2 m/s 723 mmHg 68%
    01:00 +28°C° 0 mm 2 m/s 722 mmHg 69%
    02:00 +28°C° 0 mm 2 m/s 722 mmHg 71%
    03:00 +28°C° 0 mm 2 m/s 722 mmHg 72%
    04:00 +27°C° 0 mm 2 m/s 722 mmHg 73%
    05:00 +27°C° 0 mm 2 m/s 722 mmHg 75%
    06:00 +28°C° 0 mm 3 m/s 722 mmHg 69%
    07:00 +29°C° 0 mm 3 m/s 723 mmHg 64%
    08:00 +31°C° 0 mm 3 m/s 723 mmHg 59%
    09:00 +34°C° 0 mm 4 m/s 723 mmHg 52%
    10:00 +36°C° 0 mm 4 m/s 723 mmHg 45%
    11:00 +38°C° 0 mm 4 m/s 723 mmHg 38%
    12:00 +38°C° 0 mm 4 m/s 722 mmHg 36%
    13:00 +40°C° 0 mm 4 m/s 721 mmHg 34%
    14:00 +41°C° 0 mm 5 m/s 720 mmHg 32%
    15:00 +40°C° 0 mm 4 m/s 719 mmHg 34%
    16:00 +40°C° 0 mm 4 m/s 719 mmHg 35%
    17:00 +38°C° 0 mm 4 m/s 718 mmHg 36%
    18:00 +36°C° 0 mm 3 m/s 719 mmHg 42%
    19:00 +34°C° 0 mm 2 m/s 719 mmHg 49%
    20:00 +31°C° 0 mm 2 m/s 720 mmHg 55%
    21:00 +31°C° 0 mm 2 m/s 720 mmHg 56%
    22:00 +30°C° 0 mm 2 m/s 721 mmHg 58%
    23:00 +30°C° 0 mm 2 m/s 721 mmHg 60%

    25 Janeiro, Sexta-feira

    Tempo Temperatura Precipitação Vento Pressão Humidade
    00:00 +30°C° 0 mm 3 m/s 721 mmHg 60%
    01:00 +30°C° 0 mm 3 m/s 721 mmHg 60%
    02:00 +30°C° 0 mm 4 m/s 720 mmHg 60%
    03:00 +29°C° 0 mm 4 m/s 720 mmHg 62%
    04:00 +29°C° 0 mm 4 m/s 720 mmHg 64%
    05:00 +29°C° 0 mm 3 m/s 720 mmHg 66%
    06:00 +30°C° 0 mm 4 m/s 721 mmHg 63%
    07:00 +32°C° 0 mm 4 m/s 721 mmHg 60%
    08:00 +32°C° 0 mm 4 m/s 722 mmHg 57%
    09:00 +34°C° 0 mm 4 m/s 722 mmHg 51%
    10:00 +36°C° 0 mm 5 m/s 721 mmHg 45%
    11:00 +39°C° 0 mm 5 m/s 721 mmHg 39%
    12:00 +40°C° 0 mm 5 m/s 720 mmHg 37%
    13:00 +40°C° 0 mm 5 m/s 719 mmHg 35%
    14:00 +41°C° 0 mm 5 m/s 718 mmHg 33%
    15:00 +41°C° 0 mm 5 m/s 718 mmHg 34%
    16:00 +40°C° 0 mm 5 m/s 717 mmHg 35%
    17:00 +40°C° 0 mm 4 m/s 717 mmHg 37%
    18:00 +37°C° 0 mm 4 m/s 717 mmHg 42%
    19:00 +35°C° 0 mm 3 m/s 718 mmHg 47%
    20:00 +32°C° 0 mm 2 m/s 719 mmHg 53%
    21:00 +33°C° 0 mm 3 m/s 719 mmHg 54%
    22:00 +33°C° 0 mm 3 m/s 720 mmHg 55%
    23:00 +33°C° 0 mm 4 m/s 721 mmHg 56%

    26 Janeiro, Sábado

    Tempo Temperatura Precipitação Vento Pressão Humidade
    00:00 +32°C° 0 mm 4 m/s 720 mmHg 61%
    01:00 +30°C° 0 mm 4 m/s 720 mmHg 65%
    02:00 +30°C° 0 mm 4 m/s 720 mmHg 69%
    03:00 +29°C° 0 mm 4 m/s 720 mmHg 73%
    04:00 +28°C° 0 mm 3 m/s 720 mmHg 76%
    05:00 +28°C° 0 mm 3 m/s 720 mmHg 80%
    06:00 +29°C° 0 mm 4 m/s 721 mmHg 78%
    07:00 +29°C° 0 mm 4 m/s 722 mmHg 76%
    08:00 +30°C° 0 mm 4 m/s 722 mmHg 74%
    09:00 +32°C° 0 mm 4 m/s 722 mmHg 67%
    10:00 +34°C° 0 mm 5 m/s 722 mmHg 60%
    11:00 +36°C° 0 mm 5 m/s 722 mmHg 53%
    12:00 +37°C° 0 mm 4 m/s 721 mmHg 49%
    13:00 +38°C° 0 mm 4 m/s 720 mmHg 45%
    14:00 +40°C° 0 mm 4 m/s 719 mmHg 41%
    15:00 +40°C° 0 mm 4 m/s 719 mmHg 41%
    16:00 +39°C° 0 mm 3 m/s 719 mmHg 42%
    17:00 +38°C° 0 mm 3 m/s 718 mmHg 42%
    18:00 +37°C° 0 mm 3 m/s 719 mmHg 48%
    19:00 +35°C° 0 mm 2 m/s 719 mmHg 54%
    20:00 +32°C° 0 mm 1 m/s 720 mmHg 61%
    21:00 +31°C° 0 mm 2 m/s 720 mmHg 62%
    22:00 +31°C° 0 mm 2 m/s 721 mmHg 63%
    23:00 +31°C° 0 mm 3 m/s 721 mmHg 64%
    Mostrar mais